Location: ??????
(60.6783°N, 46.8465°E)
Time: 12:13:22
(UTC+00:00)

Daily predictions for brighter satellites

Satellite Brightness Start Highest point End
(mag) Time Altitude Azimuth Time Altitude Azimuth Time Altitude Azimuth
Cosmos 1500 Rocket 4.4 14:21:02 10° SSE 14:24:58 31° E 14:28:55 10° NNE
Cosmos 1503 Rocket 4.0 14:20:26 10° NNW 14:25:49 78° NE 14:31:07 10° SE
Okean O Rocket 4.0 14:23:22 10° SSW 14:27:17 30° W 14:31:13 10° NNW
Cosmos 1689 Rocket 2.5 14:25:21 10° NNE 14:28:22 67° WNW 14:31:22 10° SSW
CENTAUR R/B 2.9 14:22:39 10° WSW 14:29:14 87° SSE 14:37:04 10° ENE
SL-16 R/B 4.3 14:25:52 10° NNE 14:30:55 26° NW 14:35:56 10° W
Cosmos 1606 3.1 14:28:57 10° NNW 14:32:44 70° W 14:36:29 10° S
CZ-4 R/B 1.5 14:29:40 10° SSE 14:33:52 67° ENE 14:38:02 10° NNW
ATLAS 3B R/B 2.7 14:27:37 10° SW 14:34:16 80° SSE 14:41:00 10° ENE
Meteor 1-27 Rocket 4.2 14:29:22 10° N 14:34:29 36° ENE 14:39:35 10° ESE
Iridium 51 3.9 14:31:34 10° N 14:35:03 82° E 14:38:36 10° S
Genesis I 3.7 14:32:40 10° W 14:36:33 53° NNW 14:40:24 10° ENE
Cosmos 1743 Rocket 4.0 14:32:31 10° SSE 14:36:36 39° E 14:40:40 10° NNE
PSLV R/B 3.9 14:35:28 10° NNE 14:39:40 77° ESE 14:43:52 10° SSW
Cosmos 1633 3.9 14:37:47 10° SE 14:40:23 19° E 14:43:01 10° NE
USA 238 DEB 3.9 14:34:07 10° W 14:40:59 76° NNW 14:48:11 10° ENE
USA 238 3.9 14:34:12 10° W 14:41:05 76° NNW 14:48:16 10° ENE
Cosmos 1939 Rocket 3.0 14:39:32 10° SE 14:43:36 56° ENE 14:47:41 10° N
Cosmos 2082 Rocket 3.0 14:39:04 10° NW 14:44:35 57° WSW 14:50:07 10° SSE
CZ-2D R/B 3.4 14:41:38 10° SE 14:45:27 55° ENE 14:49:18 10° N
deb Kosmos-1763 4.1 14:42:07 10° NNW 14:45:46 63° NE 14:49:26 10° SE
Cosmos 2263 Rocket 3.2 14:44:11 10° W 14:49:29 41° NNW 14:54:51 10° NE
Cosmos 1900 4.5 14:44:49 10° WSW 14:49:44 73° NNW 14:54:39 10° NE
Cosmos 1812 3.5 14:46:21 10° N 14:49:51 31° ENE 14:53:20 10° SE
Cosmos 1844 Rocket 2.9 14:44:38 10° SW 14:50:15 77° NW 14:55:57 10° NE
Lacrosse 5 rocket 3.1 14:47:36 10° S 14:50:58 21° SE 14:54:11 11° E
Cosmos 1825 2.3 14:47:49 10° SSW 14:51:36 82° WNW 14:55:24 10° NNE
Cosmos 44 3.0 14:49:47 10° WNW 14:54:08 68° NNE 14:58:32 10° ESE
Cosmos 2173 Rocket 4.2 14:49:55 10° SSE 14:56:03 51° E 15:02:12 10° NNE
SJ 16-02 2.9 14:52:54 10° NNW 14:56:18 21° NNE 14:59:05 13° ENE
SKYMED 2 3.8 14:52:21 10° NNE 14:56:35 47° E 15:00:48 10° S
YAOGAN 6 3.7 14:55:30 10° S 14:58:54 47° W 15:02:20 10° NNW
Meteor 2-3 Rocket 3.8 14:53:29 10° S 14:58:59 61° E 15:04:35 10° NNE
Cosmos 1777 Rocket 4.1 14:54:21 10° NNW 14:59:37 59° NE 15:04:51 10° SE
YAOGAN 1 2.6 14:56:22 10° SSE 15:00:42 89° E 15:05:05 10° NNW
Cosmos 2151 3.9 14:59:09 10° SSW 15:03:21 52° WNW 15:07:36 10° N
Cosmos 1844 3.8 14:58:06 10° SW 15:03:44 77° NW 15:09:21 10° NE
Envisat 4.4 14:59:39 10° S 15:04:30 44° W 15:09:24 10° NNW
Cosmos 2100 Rocket 4.0 15:02:43 10° S 15:08:59 63° E 15:15:13 10° NNE
OPS 6432 4.2 15:06:06 10° WSW 15:09:13 70° NNW 15:11:18 17° ENE
Cosmos 1633 Rocket 4.1 15:09:51 10° SE 15:13:13 22° E 15:16:35 10° NE
CZ-2C R/B 3.7 15:10:28 10° SE 15:15:57 44° ENE 15:21:22 10° NNW
Okean-O 4.2 15:11:49 10° SSW 15:16:01 40° W 15:20:15 10° NNW
Cosmos 1408 Rocket 3.9 15:12:04 10° SSW 15:16:22 67° WNW 15:20:40 10° N
Cosmos 2242 Rocket 4.4 15:12:28 10° N 15:16:29 31° ENE 15:20:00 13° ESE
Cosmos 2061 Rocket 4.2 15:12:02 10° SSE 15:18:13 53° E 15:24:24 10° NNE
Cosmos 1110 Rocket 4.2 15:13:47 10° SW 15:19:06 79° NW 15:24:28 10° NNE
Resurs 01 Rocket 2.9 15:17:48 17° E 15:19:43 23° NE 15:23:10 10° N
Cosmos 2297 Rocket 3.3 15:15:08 10° NW 15:20:09 31° N 15:24:07 15° ENE
Meteor 1-10 Rocket 4.2 15:15:25 10° NNW 15:21:11 87° ENE 15:26:49 10° SSE
Cosmos 2228 Rocket 4.2 15:17:29 10° NNW 15:21:50 49° W 15:26:13 10° S
Cosmos 1816 Rocket 4.5 15:16:16 10° NNW 15:22:38 78° ENE 15:29:00 10° SSE
Cosmos 724 4.2 15:16:49 10° WNW 15:22:41 84° NNE 15:27:59 13° ESE
H-2A R/B 2.3 15:19:19 10° SE 15:24:31 53° ENE 15:29:49 10° NNW
COSMOS 2487 3.7 15:21:41 10° NNW 15:24:36 24° NE 15:25:38 21° ENE
CZ-4B R/B 4.2 15:22:37 10° NNW 15:24:41 16° NW 15:26:45 10° W
Cosmos 1459 Rocket 3.9 15:21:09 10° S 15:27:10 73° E 15:33:15 10° NNE
CSL-04 Rocket 4.1 15:22:18 10° S 15:27:50 69° WSW 15:33:21 10° NNW
Cosmos 2278 Rocket 2.2 15:22:52 10° SSW 15:28:31 70° SE 15:34:10 10° NE
Lacrosse 4 Rocket 2.8 15:26:10 10° SSE 15:29:17 20° ESE 15:29:39 20° ESE
Timation 2 Rocket 4.5 15:23:51 10° NW 15:30:26 52° NNE 15:35:24 19° E
Cosmos 2285 Rocket 4.0 15:24:48 10° NNW 15:31:08 66° NE 15:37:29 10° SE
Cosmos 44 Rocket 3.5 15:27:05 10° WNW 15:31:45 56° NNE 15:34:41 22° E
Cosmos 1782 4.0 15:29:18 10° NNW 15:33:11 46° W 15:37:03 10° SSW
Cosmos 1725 Rocket 4.1 15:28:15 10° SSE 15:34:12 53° E 15:40:13 10° NNE
Cosmos 1867 3.6 15:28:45 10° SW 15:34:12 73° SE 15:38:32 17° ENE
Cosmos 304 Rocket 3.9 15:29:24 10° SW 15:34:15 80° NW 15:39:07 10° NNE
NOSS 3-2 (C) 3.8 15:28:03 10° W 15:34:29 73° N 15:40:12 18° ENE
Tsikada Rocket 4.0 15:28:20 10° NNW 15:34:42 84° ENE 15:41:07 10° SSE
ARGOS 3.2 15:31:12 10° SE 15:36:30 57° ENE 15:41:51 10° NNW
Cosmos 2227 Rocket 3.3 15:32:34 10° NW 15:37:36 31° NNE 15:40:59 18° ENE
NOSS 3-2 (A) 3.9 15:31:13 10° W 15:37:44 71° N 15:43:15 20° E
Cosmos 1331 Rocket 4.4 15:34:21 10° SW 15:39:38 67° NW 15:44:58 10° NNE
Cosmos 371 Rocket 4.2 15:36:22 10° WSW 15:41:05 48° NW 15:45:48 10° NNE
Cosmos 1802 Rocket 4.0 15:35:46 10° S 15:42:02 76° E 15:48:27 10° NNE
USA 234 3.6 15:37:18 16° ESE 15:42:42 61° SSW 15:49:11 10° W
SJ-6B 2.9 15:40:29 18° SE 15:43:00 49° ENE 15:46:40 10° N
SeaSat 1 4.0 15:39:19 10° NE 15:43:29 28° NNW 15:47:38 10° WNW
COSMO-SKYMED 1 2.7 15:40:22 10° NNE 15:44:44 78° WNW 15:49:05 10° SSW
SL-27 R/B 2.3 15:42:11 10° NNW 15:45:37 82° WSW 15:48:16 15° SSE
ADEOS Rocket 3.6 15:38:44 10° NNE 15:46:11 61° E 15:53:54 10° S
USA 116 3.4 15:44:01 10° NNE 15:47:27 70° ESE 15:51:15 10° S
Ariane Rocket 3.0 15:42:37 10° SSE 15:47:44 87° WSW 15:52:54 10° NNW
Cosmos 1862 3.4 15:45:02 10° S 15:48:54 50° E 15:52:48 10° NNE
MOS 1 4.2 15:44:31 10° SSE 15:50:12 81° ENE 15:55:54 10° NNW
HJ-1C 3.7 15:47:14 10° S 15:50:31 66° WSW 15:53:51 10° NNW
Cosmos 1238 Rocket 4.0 15:44:20 10° S 15:50:39 78° E 15:57:21 10° NNE
FREGAT/IRIS 2.2 15:49:53 38° SE 15:50:46 68° ENE 15:53:31 10° NNW
Cosmos 2219 4.1 15:46:14 10° NW 15:51:30 36° NNE 15:54:21 23° ENE
Cosmos 1862 Rocket 3.4 15:47:41 10° NNW 15:52:02 74° ENE 15:56:22 10° SSE
SL-08 R/B 4.4 15:47:08 10° S 15:53:26 70° E 15:59:42 10° NNE
Cosmos 292 Rocket 3.9 15:49:36 10° S 15:54:14 49° ESE 15:58:16 13° NE
Cosmos 1864 Rocket 4.4 15:48:29 10° S 15:54:37 69° E 16:00:44 10° NNE
Cosmos 1805 Rocket 3.4 15:50:32 10° S 15:54:55 81° ESE 15:59:20 10° NNE
USA 186 1.9 15:55:57 38° N 15:55:57 38° N 15:57:43 10° N
Cosmos 1707 Rocket 4.1 15:51:11 10° NNW 15:55:34 61° W 15:59:57 10° S
NOSS 7 (D) 3.7 15:57:26 10° WNW 16:00:11 74° NNE 16:00:24 68° ENE
Sich 1 2.9 15:56:50 10° S 16:01:07 72° E 16:05:24 10° NNE
Cosmos 1500 Rocket 4.4 15:58:15 10° SSW 16:02:39 53° WNW 16:07:04 10° N
Cosmos 1302 Rocket 4.2 15:58:26 10° SW 16:03:39 72° NW 16:08:52 10° NNE
Cosmos 1375 Rocket 4.5 15:57:13 10° SW 16:03:40 75° SE 16:08:34 19° ENE
Terra 3.6 16:03:37 16° NE 16:03:50 16° NE 16:06:40 10° N
SPOT 3 Rocket 3.5 15:59:41 14° SE 16:04:08 67° ENE 16:09:21 10° NNW
Spot 2 Rocket 4.3 16:04:44 30° ENE 16:05:52 33° NE 16:10:24 10° N
Cosmos 1937 Rocket 4.0 16:00:58 10° NNW 16:06:03 44° NE 16:07:53 32° E
Cosmos 1703 Rocket 3.8 16:03:19 10° N 16:07:37 48° ENE 16:08:52 37° ESE
SL-08 RB Rocket 3.6 16:05:00 22° SE 16:07:52 65° ENE 16:12:21 10° NNW
Cosmos 1943 Rocket 3.1 16:03:27 10° SSE 16:07:10 27° SE 16:07:10 27° SE
Cosmos 990 Rocket 4.2 16:03:31 10° NNW 16:08:35 51° NE 16:10:28 34° ESE
CZ-4 R/B 4.0 16:05:49 10° SSW 16:09:16 24° W 16:12:44 10° NW
Cosmos 2297 3.7 16:05:33 10° SSW 16:11:03 55° ESE 16:15:08 18° NE
Cosmos 2016 Rocket 4.0 16:06:09 10° SSW 16:12:17 85° WNW 16:18:29 10° NNE
Genesis I 3.6 16:10:46 10° WNW 16:14:37 50° N 16:15:29 41° NE
Cosmos 1633 2.9 16:11:18 10° SSW 16:14:52 64° WNW 16:18:29 10° N
Cosmos 1833 4.2 16:10:59 10° NW 16:16:49 87° SW 16:20:23 25° SE
Meteor 1-27 Rocket 4.1 16:12:45 10° NNW 16:18:13 63° W 16:23:41 10° S
CENTAUR R/B 3.0 16:13:26 10° W 16:20:24 72° N 16:25:00 28° ENE
Okean 1 3.6 16:19:25 10° N 16:23:11 47° ENE 16:23:11 47° ENE
ATLAS 3B R/B 2.8 16:18:35 10° W 16:25:15 69° N 16:28:52 29° ENE
Cosmos 405 3.6 16:21:56 10° N 16:24:38 41° NNE 16:24:38 41° NNE
Cosmos 1812 3.9 16:22:05 10° NNW 16:25:47 43° W 16:29:28 10° SSW
Lacrosse 5 rocket 2.0 16:25:09 10° SW 16:29:27 45° SSE 16:29:50 44° SSE
Cosmos 2369 Rocket 3.6 16:25:22 10° S 16:27:24 20° SSE 16:27:24 20° SSE
Cosmos 2233 Rocket 3.8 16:24:37 10° S 16:30:45 78° E 16:36:58 10° NNE
NOSS 5 (C) 4.4 16:27:36 10° WSW 16:30:33 68° W 16:30:33 68° W
USA 238 DEB 3.8 16:25:30 10° WNW 16:32:29 76° NNE 16:35:44 36° E
USA 238 3.8 16:25:36 10° WNW 16:32:35 76° NNE 16:35:49 36° E
GENESIS II 4.4 16:30:23 10° WSW 16:34:29 72° NNW 16:35:20 53° NE
Cosmos 2263 Rocket 3.6 16:29:52 10° WNW 16:34:47 29° N 16:37:39 20° NE
Cosmos 1844 Rocket 4.0 16:29:46 10° W 16:34:57 36° NNW 16:39:07 15° NE
Cosmos 44 3.9 16:31:06 10° WNW 16:35:15 44° SW 16:37:01 29° S
SJ 16-02 1.3 16:31:22 10° NNW 16:35:47 60° NE 16:36:06 58° ENE
Okean 1-7 2.9 16:32:00 10° N 16:36:17 68° ENE 16:36:36 65° ESE
SPOT 5 4.0 16:39:16 30° NE 16:39:16 30° NE 16:43:42 10° N
Cosmos 1898 Rocket 3.4 16:37:56 10° NNW 16:43:10 77° NE 16:44:21 54° SE
SPOT 1/Viking Rocket 4.1 16:44:57 39° NE 16:44:57 39° NE 16:49:40 10° N
NOSS 3-1 (C) 4.1 16:44:44 10° SSW 16:48:42 34° SSE 16:48:42 34° SSE
Meteor 1-19 Rocket 4.2 16:44:11 10° NNW 16:50:11 75° ENE 16:52:06 44° SE
Cosmos 1633 Rocket 3.2 16:46:16 10° SSW 16:50:36 72° WNW 16:54:58 10° NNE
MetOp-B 4.1 16:50:44 55° ESE 16:51:34 63° ENE 16:56:53 10° NNW
Cosmos 1666 Rocket 4.0 16:47:15 10° SSW 16:51:42 63° WNW 16:56:11 10° N
Cosmos 2242 Rocket 4.2 16:50:34 10° NNW 16:54:59 57° W 16:57:33 24° SSW
Resurs 1-3 3.7 16:54:21 51° S 16:55:24 74° WSW 16:59:50 10° NNW
Resurs 01 Rocket 1.5 16:55:22 75° SSE 16:55:43 89° E 17:00:13 10° NNW
CZ-2C R/B 3.9 16:50:01 10° S 16:55:46 57° W 17:01:26 10° NNW
ARGOS Delta rocket 4.0 16:54:36 33° S 16:56:28 64° W 17:00:53 10° NNW
Cosmos 1513 Rocket 4.4 16:57:41 50° SE 16:58:49 58° E 17:04:52 10° NNE
Cosmos 1992 Rocket 4.3 16:54:09 10° SW 16:59:22 65° NW 17:04:20 12° NNE
COSMOS 2487 3.4 16:56:34 10° NW 16:59:11 46° NW 16:59:11 46° NW
CZ-2C R/B 4.0 16:55:09 10° NNE 16:57:41 25° NE 16:57:41 25° NE
Landsat 7 4.4 17:01:57 44° NNE 17:01:57 44° NNE 17:05:49 10° N
Cosmos 372 Rocket 4.3 16:57:31 10° NNW 17:02:40 50° NE 17:02:42 50° NE
H-2A R/B 3.3 16:59:03 10° SSW 17:04:07 42° W 17:09:18 10° NNW
Cosmos 2297 Rocket 2.5 16:59:49 10° NW 17:05:23 51° NE 17:05:56 49° NE
Cosmos 1891 Rocket 4.4 17:03:38 45° SSE 17:05:25 64° E 17:11:40 10° NNE
Lacrosse 4 Rocket 2.2 17:03:07 10° SW 17:06:01 43° SW 17:06:01 43° SW
Cosmos 1125 Rocket 4.3 17:04:32 10° NNW 17:09:25 39° NE 17:09:25 39° NE
SL-24 DEB 4.3 17:09:45 57° SSW 17:10:38 76° W 17:15:22 10° N
Meteor 1-13 Rocket 4.3 17:04:48 10° NNW 17:10:43 59° ENE 17:10:54 58° ENE
Meteor 1-25 Rocket 4.3 17:12:09 59° ENE 17:12:09 59° ENE 17:17:02 10° NNE
Cosmos 2278 Rocket 3.1 17:07:31 10° WSW 17:12:57 46° NNW 17:16:45 19° NE
Cosmos 44 Rocket 3.2 17:08:46 10° WNW 17:13:24 73° SW 17:13:24 73° SW
Cosmos 858 Rocket 4.3 17:08:55 10° NNW 17:14:14 89° SW 17:14:33 79° SSE
ERS-1 Rocket 3.5 17:15:50 45° NNE 17:15:50 45° NNE 17:19:54 10° NNW
Meteor 2-11 Rocket 4.3 17:15:58 65° ESE 17:16:21 67° E 17:22:24 10° NNE
ARGOS 4.4 17:11:58 10° SSW 17:17:02 39° W 17:22:09 10° NNW
Cosmos 1867 3.9 17:12:37 10° W 17:18:03 61° NNW 17:19:13 49° NE
Timation 2 Rocket 4.2 17:11:37 10° NW 17:18:26 76° SW 17:20:24 49° SSE
Meteor 2-4 Rocket 3.6 17:13:35 10° NNW 17:19:25 80° ENE 17:19:56 73° SE
SeaSat 1 4.1 17:18:45 22° NNE 17:19:59 24° N 17:23:54 10° NW
Cosmos 2082 4.2 17:15:11 10° NW 17:20:40 45° NNE 17:20:56 45° NE
Cosmos 2227 Rocket 2.4 17:17:10 10° NW 17:22:45 56° NE 17:22:48 56° NE
NOSS 3-2 (C) 3.8 17:19:11 10° WNW 17:25:59 80° NNE 17:27:39 58° E
USA 234 4.1 17:24:39 32° S 17:26:32 38° SW 17:32:34 10° W
NOSS 3-2 (A) 3.8 17:22:13 10° WNW 17:29:07 89° NNE 17:30:38 61° ESE
Cosmos 1464 Rocket 3.9 17:26:46 41° S 17:29:14 83° E 17:35:40 10° NNE
Cosmos 1470 Rocket 4.3 17:31:56 51° NW 17:31:56 51° NW 17:35:48 10° N
ADEOS Rocket 4.2 17:24:28 10° NNE 17:31:39 54° WNW 17:39:09 10° SW
Nadezhda 4 Rocket 4.1 17:26:20 10° NNW 17:32:34 73° W 17:34:30 46° S
Cosmos 2219 3.2 17:30:41 10° NW 17:36:16 76° NNE 17:36:16 76° NNE
USA 229 DEB 3.9 17:30:27 10° SW 17:35:45 52° S 17:35:45 52° S
USA 229 3.9 17:30:34 10° SW 17:35:48 52° S 17:35:48 52° S
Terra 3.1 17:42:30 32° N 17:42:30 32° N 17:45:17 10° NNW
Cosmos 2026 Rocket 3.9 17:34:21 10° NNW 17:40:32 75° ENE 17:40:32 75° ENE
Spot 2 Rocket 3.7 17:44:55 67° WNW 17:44:55 67° WNW 17:49:42 10° NNW
Cosmos 2034 Rocket 4.0 17:45:46 68° NE 17:45:46 68° NE 17:51:10 10° NNE
Cosmos 1937 Rocket 3.9 17:43:03 10° NW 17:48:04 59° WSW 17:48:04 59° WSW
Cosmos 1943 Rocket 3.2 17:45:45 10° SW 17:48:49 34° SW 17:48:49 34° SW
Cosmos 2297 4.3 17:49:47 10° WSW 17:55:21 54° NW 17:57:07 39° NNE
Cosmos 2298 Rocket 4.4 17:50:27 10° NNW 17:54:49 60° NNW 17:54:49 60° NNW
Lacrosse 5 rocket 3.7 18:03:52 10° W 18:05:29 21° WSW 18:05:29 21° WSW
Cosmos 1092 Rocket 4.2 18:03:16 10° NNW 18:09:32 65° W 18:09:58 63° WSW
CENTAUR R/B 2.9 18:04:16 10° WNW 18:11:41 88° NNE 18:12:11 81° ESE
Cosmos 2369 Rocket 4.3 18:08:15 10° SW 18:09:20 16° SW 18:09:20 16° SW
SJ 16-02 3.3 18:10:16 10° NW 18:13:06 27° WNW 18:13:06 27° WNW
ATLAS 3B R/B 2.6 18:09:44 10° WNW 18:16:07 76° NNW 18:16:07 76° NNW
SPOT 5 3.9 18:18:29 47° NNW 18:18:29 47° NNW 18:22:10 10° NNW
Cosmos 2263 Rocket 3.3 18:14:48 10° NW 18:19:20 37° N 18:19:20 37° N
Cosmos 1844 Rocket 4.1 18:15:22 10° NW 18:20:17 29° N 18:20:47 29° NNE
USA 238 DEB 3.9 18:16:35 10° WNW 18:23:10 67° WSW 18:23:10 67° WSW
USA 238 3.9 18:16:42 10° WNW 18:23:16 67° WSW 18:23:16 67° WSW
Resurs 01 Rocket 3.9 18:32:55 20° W 18:32:55 20° W 18:36:07 10° NW
CZ-2C R/B 3.8 18:35:30 10° NNE 18:39:13 40° N 18:39:13 40° N
Lacrosse 4 Rocket 4.5 18:42:21 10° W 18:42:24 10° W 18:42:24 10° W
Cosmos 2297 Rocket 3.4 18:44:03 10° NW 18:47:45 39° WNW 18:47:45 39° WNW
SeaSat 1 4.3 18:58:31 26° NNW 18:58:31 26° NNW 19:01:06 10° NW
Cosmos 2278 Rocket 3.8 18:53:22 10° WNW 18:58:19 30° N 18:58:36 30° N
Cosmos 2227 Rocket 3.7 19:01:24 10° NW 19:04:38 33° WNW 19:04:38 33° WNW
Terra 4.2 19:21:22 20° NW 19:21:22 20° NW 19:23:05 10° NNW
SL-16 R/B 4.3 19:36:09 23° NNE 19:36:09 23° NNE 19:40:27 10° NNW
CENTAUR R/B 4.1 19:54:55 10° WNW 19:59:22 36° W 19:59:22 36° W
Cosmos 2263 Rocket 4.2 19:58:59 10° NW 20:01:02 23° NW 20:01:02 23° NW
ATLAS 3B R/B 4.2 20:00:32 10° WNW 20:03:22 27° WNW 20:03:22 27° WNW
Cosmos 2278 Rocket 4.5 20:38:40 10° NW 20:40:28 19° NW 20:40:28 19° NW
SL-16 R/B 4.1 21:21:14 31° N 21:21:14 31° N 21:24:27 10° NNW
ATLAS 2AS CENTAUR R/B 3.9 22:04:39 41° ENE 22:04:39 41° ENE 22:09:17 10° ENE
ADEOS II 4.5 22:09:35 10° NE 22:11:28 17° ENE 22:11:28 17° ENE
Resurs 1-4 Rocket 4.2 22:21:17 10° NNE 22:23:26 24° NE 22:23:26 24° NE
Cosmos 2322 Rocket 4.0 22:36:13 27° NE 22:36:13 27° NE 22:38:46 10° NE
Cosmos 2344 3.9 22:39:34 64° ENE 22:39:34 64° ENE 22:47:22 10° ENE
Cosmos 2219 Rocket 4.1 22:53:37 23° ENE 22:53:37 23° ENE 22:56:32 10° NE
SL-16 R/B 4.4 23:06:19 20° NNW 23:06:19 20° NNW 23:08:12 10° NNW
Cosmos 2360 Rocket 3.7 23:05:20 33° NE 23:05:20 33° NE 23:08:26 10° NE
ARIANE 5 R/B 4.5 22:59:26 10° NNE 23:02:02 25° NE 23:02:02 25° NE
Cosmos 1697 Rocket 4.2 23:06:24 31° NNE 23:06:24 31° NNE 23:10:02 10° NE
Cosmos 1943 Rocket 3.9 23:08:28 26° ENE 23:08:28 26° ENE 23:11:10 10° E
COSMOS 2428 4.3 23:10:32 29° E 23:10:32 29° E 23:14:05 10° NE
Cosmos 1980 Rocket 3.6 23:11:48 33° NNE 23:11:48 33° NNE 23:15:18 10° NE
NOSS 3-4 (A) 4.1 23:19:48 54° ENE 23:19:48 54° ENE 23:25:04 10° ENE
NOSS 3-4 (C) 4.1 23:19:54 55° ENE 23:19:54 55° ENE 23:25:11 10° ENE
CZ-2D R/B 3.6 23:16:29 10° NNE 23:19:10 31° NNE 23:19:10 31° NNE
Cosmos 2369 Rocket 3.2 23:29:45 43° NE 23:29:45 43° NE 23:35:02 10° ESE
SL-16 R/B 3.2 23:33:55 42° NNE 23:33:55 42° NNE 23:37:47 10° NE
COSMOS 2455 3.6 23:44:32 48° N 23:44:32 48° N 23:49:54 10° ENE
Cosmos 2181 Rocket 4.3 23:45:31 69° NE 23:45:31 69° NE 23:51:13 10° NNE
ADEOS II 3.0 23:48:43 10° NNE 23:52:25 46° NNE 23:52:25 46° NNE
